#timestamp,LO_Frequency,Hit,StdDev 
1657656015.1,286047000.2,N
1657656035.9,286047002.2,N
1657656055.7,286047002.1,N
1657656075.5,286047002.4,N
1657656095.4,286047001.8,N
1657656115.2,286047001.8,N
1657656135.0,286047001.6,N
1657656135.9,286047001.6,N
1657656155.8,286047002.5,N
1657656175.6,286047002.4,N
1657656195.5,286047002.2,N
1657656215.3,286046999.7,N
1657656235.1,286047000.0,N
1657656255.9,286047000.2,N
1657656275.7,286047000.3,N
1657656295.5,286047000.6,N
1657656315.4,286047000.6,N
1657656335.2,286047000.5,N
1657656355.1,286047000.0,N
1657656356.0,286047000.0,N
1657656375.8,286046999.8,N
1657656395.6,286047002.5,N
1657656415.5,286047002.5,N
1657656435.3,286047002.3,N
1657656455.2,286047002.1,N
1657656475.9,286047004.4,Y
1657656495.7,286047002.5,P
1657656515.6,286047002.3,P
1657656535.4,286047002.8,P
1657656555.3,286047002.7,Y
1657656575.1,286046998.4,P
1657656595.8,286046998.9,N
1657656615.7,286046996.7,N
1657656635.5,286046997.1,N
1657656655.4,286046996.7,N
1657656675.2,286046996.5,N
1657656695.0,286046999.6,N
1657656695.9,286046999.6,N
1657656715.8,286046998.7,N
1657656735.6,286046998.6,N
1657656755.4,286046999.1,N
1657656775.3,286046999.4,N
1657656795.1,286046999.2,N
1657656815.9,286046999.1,N
1657656835.7,286046996.7,N
1657656855.5,286046996.7,N
1657656875.4,286046999.2,N
1657656895.2,286046998.7,N
1657656915.0,286046998.3,N
1657656915.9,286046998.3,N
1657656935.8,286046998.8,N
1657656955.6,286046998.7,N
1657656975.5,286046999.0,N
1657656995.3,286046999.0,N
1657657015.1,286046998.7,N
1657657035.9,286046998.9,N
1657657055.7,286046996.5,N
1657657075.5,286046998.8,N
1657657095.4,286046999.0,N
1657657115.2,286046996.6,N
1657657135.1,286046998.9,N
1657657136.0,286046998.9,N
1657657155.8,286046999.0,N
1657657175.6,286046998.8,N
1657657195.5,286046998.4,N
1657657215.3,286046998.1,N
1657657235.2,286046998.4,N
1657657255.9,286046998.6,N
1657657275.7,286046998.6,N
1657657295.6,286046998.1,N
1657657345.4,286046998.7,E
1657657355.4,286046998.5,N
1657657375.2,286046998.5,P
1657657395.0,286046999.4,P
1657657395.9,286046999.4,N
1657657415.8,286046998.4,Y
1657657435.6,286047000.0,P
1657657455.5,286047002.8,P
1657657475.3,286047000.2,N
1657657495.1,286047002.7,N
1657657515.9,286047002.6,N
1657657535.7,286047001.4,N
1657657555.5,286047002.5,N
1657657575.4,286047002.6,N
1657657595.2,286047002.3,N
1657657615.1,286047000.1,N
1657657616.0,286047000.1,N
1657657635.8,286047001.1,N
1657657655.6,286047000.0,N
1657657675.5,286047002.8,N
1657657695.3,286047002.0,N
1657657715.2,286047002.5,N
1657657735.9,286047002.0,N
1657657755.7,286047001.7,N
1657657775.6,286047002.2,N
1657657795.4,286047000.0,N
1657657815.2,286047000.4,N
1657657835.1,286047000.2,N
1657657836.0,286047000.2,N
1657657855.8,286046999.8,N
1657657875.7,286047002.3,N
1657657895.5,286047002.3,N
1657657915.3,286047002.8,N
1657657935.2,286047002.3,N
1657657955.0,286047002.2,N
1657657955.9,286047002.2,N
1657657975.8,286047001.9,N
1657657995.6,286047001.8,N
1657658015.4,286047001.9,N
1657658035.3,286047001.5,N
1657658055.1,286047002.8,N
1657658075.8,286047001.6,N
1657658095.7,286047002.2,N
1657658115.5,286047002.4,N
1657658135.4,286047004.1,Y
1657658155.2,286047002.6,P
1657658175.0,286047002.5,P
1657658175.9,286047002.5,P
1657658195.8,286047001.8,Y
1657658215.6,286047000.8,P
1657658235.5,286046998.3,N
1657658255.3,286047001.0,N
1657658275.1,286046998.1,N
1657658295.9,286047000.6,N
1657658315.7,286047000.9,N
1657658335.5,286047000.0,N
1657658355.4,286047000.9,N
1657658375.2,286046999.9,N
1657658395.1,286047000.9,N
1657658396.0,286047000.9,N
1657658415.8,286047001.1,N
1657658435.6,286047001.1,N
1657658455.5,286047001.1,N
1657658475.3,286047000.6,N
1657658495.2,286047000.0,N
1657658515.9,286047000.2,N
1657658535.7,286047000.1,N
1657658555.6,286047002.5,N
1657658575.4,286047002.0,N
1657658595.2,286047004.4,Y
1657658615.1,286047002.4,P
1657658616.0,286047002.4,N
1657658635.8,286047002.2,N
1657658655.7,286047002.6,Y
1657658675.5,286047000.7,P
1657658695.3,286047000.8,N
1657658715.2,286047002.8,P
1657658735.0,286047000.1,N
1657658735.9,286047000.1,N
1657658755.8,286047002.6,N
1657658775.6,286047000.4,N
1657658795.4,286046998.2,N
1657658815.3,286047000.2,N
1657658835.1,286047000.0,N
1657658855.8,286047002.2,N
1657658875.7,286047002.0,N
1657658895.5,286046999.7,N
1657658915.4,286047002.8,N
1657658935.2,286047001.9,N
1657658955.0,286047001.5,N
1657658955.9,286047001.5,N
1657658975.8,286047001.9,N
1657658995.6,286046999.7,N
1657659015.4,286047002.3,N
1657659035.3,286047002.8,N
1657659055.1,286047001.5,N
1657659075.9,286047001.4,N
1657659095.7,286047002.5,N
1657659115.5,286047002.2,N
1657659135.4,286047002.6,N
1657659155.2,286047002.1,N
1657659175.0,286047002.6,N
1657659175.9,286047002.6,N
1657659195.8,286047002.1,N
1657659215.6,286047001.6,N
1657659235.5,286047004.2,Y
1657659255.3,286047002.7,P
1657659275.1,286047002.5,P
1657659295.9,286047002.2,P
1657659315.7,286047002.2,Y
1657659335.6,286046998.6,P
1657659355.4,286047001.1,N
1657659375.2,286047000.3,N
1657659395.1,286046998.6,N
1657659396.0,286046998.6,N
1657659415.8,286046998.6,N
1657659435.7,286046998.6,N
1657659455.5,286047000.9,N
1657659475.3,286047001.2,N
1657659495.2,286047000.7,N
1657659515.9,286047000.6,N
1657659535.7,286047000.6,N
1657659555.6,286047000.4,N
1657659575.4,286047000.2,N
1657659595.3,286047002.7,N
